Location: Newark
(8.1700°N, 77.4300°E)
Time: 22:53:15
(UTC+00:00)

Hubble Space Telescope - Pass Details

Date: 24 August 2019
Orbit: 536 x 540 km, 28.5° (Epoch: 19 September)

Event Time Altitude Azimuth Distance (km) Brightness Sun altitude
Rises 14:40:30 0° 317° (NW) 2,662 5.2 -24.4°
Reaches altitude 10° 14:43:10 10° 334° (NNW) 1,772 3.9 -25.0°
Enters shadow 14:45:16 19° 2° (N) 1,294 2.8 -25.5°
